User: anonymous   Login
Location: *
(17.3280°S, 114.7300°W)
Time: 00:28:18
(UTC+00:00)
Language:

GPS 2-14 Rocket1 - Orbit

View from above orbital plane
View from above orbital plane
View from above satellite
View from above satellite

Ground track
Ground track

The orbit data is extracted from the following two-line orbital elements,

1 22015U 92039B   20292.54759749 +.00001379 +00000-0 +37143-4 0  9990
2 22015 020.7143 253.4076 0047263 172.3920 187.7243 15.19115891576238
Epoch (UTC): 18 October 2020 13:08:32
Eccentricity: 0.0047263
inclination: 20.7143°
perigee height: 476 km
apogee height: 541 km
right ascension of ascending node: 253.4076°
argument of perigee: 172.3920°
revolutions per day: 15.19115891
mean anomaly at epoch: 187.7243°
orbit number at epoch: 57623

The dashed part of the orbit path shows where the satellite is in the earth's shadow,  

DLR